Wind_Speed
27 28 30 31 33 35 36 35 35 30 25 23 25 24 26 30 32 31 35 35 36 34 35 36 34 33 33 32 29 28 29 31 28 27 28 28 30 28 25 25 23 21 17
25 28 29 30 33 35 35 35 34 32 28 24 20 21 21 23 26 29 25 26 27 30 32 27 30 30 30 30 28 27 26 27 28 29 26 24 24 23 21 21 16 15 17
24 27 30 30 32 33 34 34 35 34 33 28 23 20 19 18 18 21 24 25 23 23 25 24 24 25 24 25 24 24 23 28 27 24 22 21 18 16 13 12 13 15 12
26 25 27 29 31 33 33 32 32 32 33 32 29 25 20 17 16 15 14 16 20 22 23 21 22 24 22 18 20 21 23 24 22 22 18 16 14 11 11 13 12 10 11
22 25 26 27 30 31 31 32 31 33 32 32 31 32 26 19 11 9 9 9 11 14 16 20 18 19 20 19 19 20 22 19 19 17 16 14 11 9 9 10 5 6 10
16 22 25 26 28 30 30 32 33 32 32 33 32 32 29 24 18 12 8 7 8 10 12 10 14 15 15 18 18 17 16 15 14 14 10 8 4 3 7 4 1 5 12
12 20 22 25 25 28 32 31 32 32 31 32 32 32 31 27 23 16 10 4 3 5 8 9 7 9 12 15 15 16 14 11 10 8 6 4 2 2 3 2 4 7 12
11 16 19 20 23 23 29 31 28 30 30 28 30 31 32 34 32 29 18 7 7 5 2 2 7 8 7 8 8 6 9 7 8 6 4 4 1 4 6 9 11 12 19
10 12 16 16 18 20 23 28 29 25 29 30 31 30 32 34 37 35 29 24 17 12 7 4 2 2 6 7 7 6 3 5 6 7 2 1 1 5 8 11 14 19 24
9 10 12 14 15 17 20 23 28 28 26 28 31 31 31 32 31 33 31 29 28 29 28 21 10 2 3 3 4 8 9 7 9 9 9 10 10 10 10 14 18 23 27
8 8 8 11 12 13 16 18 22 27 28 27 28 30 31 32 32 31 35 31 29 30 31 31 29 24 17 12 9 5 4 5 9 12 12 16 15 15 17 18 21 23 26
5 6 3 7 6 9 13 14 16 20 25 28 28 28 29 31 31 31 32 35 29 26 26 26 28 29 29 29 28 25 21 15 9 6 7 9 10 11 15 14 16 18 20
6 4 3 4 3 4 7 10 12 14 19 23 25 27 27 27 28 29 30 28 27 28 29 29 29 28 27 26 24 24 26 27 27 27 24 22 20 17 17 15 15 15 20
7 5 3 3 2 2 4 6 10 12 13 17 20 23 25 27 27 27 28 27 26 27 29 29 30 30 30 29 28 28 28 27 24 21 21 19 16 15 14 15 18 27 31
9 7 4 2 1 2 2 3 5 8 10 12 15 17 20 22 24 26 24 24 25 24 24 23 22 23 25 26 26 26 24 23 23 23 22 21 22 22 23 24 26 30 33
13 10 6 4 4 5 3 2 2 3 6 9 11 13 15 17 20 22 23 22 22 23 23 22 22 23 24 23 21 19 19 18 17 16 16 18 19 20 23 25 28 31 32
17 14 11 11 12 11 9 5 4 4 3 6 8 10 11 13 15 18 20 20 20 18 19 20 20 20 20 19 19 18 18 18 17 17 18 19 19 20 21 23 29 35 38
25 22 19 18 18 16 14 12 10 7 6 5 6 9 11 11 11 12 15 17 17 17 16 15 15 16 16 16 15 15 15 15 16 17 20 21 22 24 25 26 31 38 44
32 30 25 23 22 21 17 15 15 12 9 9 9 10 11 12 12 11 11 13 15 15 13 12 11 11 11 12 12 13 14 15 17 20 21 24 26 29 31 33 33 36 39
35 34 31 29 25 23 20 16 17 16 14 13 13 13 14 15 15 14 14 13 14 13 14 13 13 13 13 14 15 16 17 20 20 23 27 27 28 31 30 32 33 33 38
32 31 29 27 25 22 19 15 16 17 17 16 16 15 16 17 17 17 17 16 15 13 13 13 16 16 16 16 18 18 19 21 26 23 24 27 28 28 31 33 33 33 36
27 27 28 22 18 15 17 16 13 15 17 18 18 18 19 20 20 20 20 21 20 18 16 16 16 18 18 18 20 21 21 21 21 26 24 25 28 31 33 35 35 34 36
27 28 27 25 20 15 15 14 14 11 14 18 19 20 21 21 21 21 21 22 23 23 22 20 19 19 19 21 22 24 24 24 24 27 27 27 29 31 36 36 36 33 36
29 26 25 27 25 22 18 17 18 19 16 12 13 17 19 20 21 21 21 22 22 21 21 21 20 20 19 22 23 24 24 24 25 26 28 26 27 28 31 33 35 35 38
29 29 25 23 24 23 21 20 20 22 18 13 12 16 17 18 20 21 20 19 20 18 21 19 18 18 18 19 23 23 22 23 22 20 22 23 24 27 31 34 34 34 36
30 28 26 26 24 23 23 21 19 21 21 15 14 15 16 16 17 19 19 19 21 17 21 19 18 17 16 17 19 20 18 19 17 15 17 21 23 26 30 32 34 36 35
Wind_Direction
65 61 54 52 44 40 45 48 57 58 63 71 73 64 71 69 66 67 72 75 78 81 88 86 87 85 89 88 90 95 97 99 99 102 102 102 106 100 98 92 91 90 82
67 64 57 53 47 41 43 51 50 54 59 66 80 77 68 67 74 69 70 78 82 82 88 87 80 80 86 92 92 95 94 103 107 103 102 105 109 102 102 103 80 79 79
68 64 60 55 51 46 42 45 51 56 56 63 71 83 75 72 73 73 77 75 83 84 79 85 79 80 79 87 93 102 108 109 111 107 105 108 101 94 93 105 97 79 60
72 65 60 57 52 49 46 48 50 45 48 55 65 74 81 77 74 78 80 79 83 82 83 85 87 82 81 81 90 100 117 118 113 101 86 92 88 74 86 100 98 73 53
77 70 63 61 55 50 49 49 49 47 47 48 56 64 66 75 86 74 76 89 88 89 86 88 89 85 91 89 95 112 129 125 120 108 92 88 87 94 113 131 120 76 26
75 67 61 61 58 51 50 50 50 49 45 45 50 53 55 53 55 69 80 92 106 106 106 90 93 104 100 99 99 109 125 129 122 111 88 74 77 112 133 69 136 348 350
78 64 55 54 56 49 50 52 51 50 47 45 46 48 47 45 41 44 57 82 123 121 143 139 130 115 119 106 109 112 116 127 127 114 96 72 101 115 197 320 301 318 327
76 66 60 54 56 54 52 52 55 53 53 50 49 45 46 46 48 51 54 57 65 73 64 165 166 168 161 155 136 127 102 130 131 120 104 80 162 225 258 276 296 314 318
95 69 65 53 52 60 58 53 53 59 55 51 52 50 49 49 50 51 52 58 55 49 52 50 -0 240 232 216 202 196 192 135 154 158 31 341 308 270 286 289 296 299 308
112 77 68 62 54 51 59 57 55 54 58 53 51 50 50 51 49 49 55 59 61 63 65 64 72 74 309 294 256 241 231 211 199 228 263 282 286 288 295 301 306 313 320
138 103 84 68 51 41 52 60 55 55 54 53 51 49 49 52 52 54 55 62 64 69 70 66 65 69 68 60 48 18 332 281 249 248 258 275 279 278 284 307 324 329 326
146 148 115 80 51 41 42 51 58 55 56 52 50 49 46 50 53 57 59 61 65 68 67 70 71 70 70 69 67 64 60 56 45 16 334 328 336 317 314 323 320 347 347
172 164 126 90 67 43 38 42 55 55 54 53 50 49 45 45 48 54 60 61 64 68 69 69 71 72 71 69 70 69 66 63 62 57 54 54 52 43 34 22 8 356 355
194 205 143 99 64 24 39 41 44 49 48 48 46 45 45 42 41 43 51 54 59 62 63 63 69 68 68 65 62 56 50 45 43 40 37 32 26 22 17 15 350 345 341
210 215 183 162 57 66 85 48 36 31 37 40 40 40 41 37 39 40 41 45 50 47 51 56 55 53 55 55 56 56 56 56 49 41 34 27 24 16 3 353 342 331 329
223 224 232 267 300 315 352 34 7 357 7 23 28 33 37 33 31 32 38 35 37 44 44 45 45 42 43 45 48 51 47 46 39 29 15 11 4 357 351 348 348 344 337
235 237 247 264 287 299 306 308 295 289 324 354 3 6 17 24 27 23 25 31 28 29 35 35 37 39 39 40 40 38 35 32 25 22 17 12 6 1 357 359 358 356 351
243 249 255 262 278 289 296 296 288 290 292 312 336 340 345 355 3 9 11 14 19 18 19 19 23 26 24 22 22 22 20 17 9 5 -0 356 355 358 353 347 348 352 353
246 255 261 262 269 276 282 291 285 280 277 295 314 321 325 330 337 346 349 348 352 359 5 6 2 359 355 351 348 348 349 352 357 347 351 343 346 348 350 349 347 350 351
248 251 258 262 266 269 276 280 278 275 271 282 302 312 317 320 323 327 330 334 336 343 347 348 343 340 341 338 337 338 338 336 344 343 338 340 341 344 340 343 346 346 352
245 252 254 259 265 272 277 273 274 278 271 273 287 300 308 311 312 318 321 323 322 325 328 331 331 332 330 329 330 334 336 340 339 346 342 346 342 339 341 343 344 347 348
247 248 250 250 250 261 273 273 278 286 283 281 284 294 299 304 309 312 315 317 317 315 316 316 320 322 329 323 322 325 328 331 334 333 341 340 343 344 345 347 346 349 353
259 252 248 252 248 237 249 259 272 282 293 289 289 295 300 305 309 312 313 316 314 311 312 311 314 316 322 322 319 322 321 320 323 323 329 336 344 344 352 351 348 348 351
262 273 262 255 258 253 246 255 267 275 273 275 291 298 306 308 311 310 313 318 316 313 313 311 313 312 313 312 313 314 315 317 319 322 333 345 348 352 353 357 352 351 352
254 263 273 269 262 266 257 255 264 267 271 276 287 295 299 304 310 308 308 312 311 319 313 314 315 317 317 308 300 302 305 312 323 333 337 350 353 351 351 349 351 348 347
242 252 258 265 269 276 272 268 265 272 269 272 287 296 302 301 296 297 304 304 306 314 304 306 308 309 314 314 310 311 312 307 316 343 348 352 0 1 11 12 7 3 357
Height
10968 10966 10964 10961 10959 10954 10951 10947 10944 10941 10941 10941 10940 10938 10937 10934 10931 10931 10930 10929 10929 10929 10928 10927 10927 10926 10925 10925 10926 10927 10929 10931 10933 10936 10937 10938 10938 10939 10938 10938 10938 10937 10936
10975 10971 10970 10967 10963 10959 10956 10954 10950 10947 10946 10945 10943 10942 10942 10940 10940 10939 10938 10937 10936 10936 10935 10934 10934 10934 10934 10933 10934 10936 10937 10938 10940 10942 10942 10943 10942 10942 10942 10941 10941 10941 10940
10981 10978 10976 10974 10970 10967 10962 10957 10955 10953 10951 10949 10947 10945 10946 10946 10945 10945 10946 10944 10942 10941 10940 10940 10940 10941 10941 10940 10940 10941 10943 10944 10946 10947 10947 10947 10947 10947 10947 10946 10945 10943 10943
10985 10984 10982 10979 10975 10972 10969 10965 10962 10959 10957 10954 10951 10949 10948 10948 10948 10949 10950 10949 10947 10946 10946 10946 10946 10946 10946 10946 10946 10946 10947 10949 10950 10951 10951 10951 10950 10950 10950 10949 10948 10947 10945
10991 10990 10988 10985 10982 10979 10976 10972 10967 10964 10963 10960 10956 10951 10951 10952 10952 10951 10951 10952 10950 10949 10950 10950 10950 10950 10950 10950 10951 10951 10952 10952 10952 10952 10953 10953 10954 10953 10952 10951 10950 10949 10948
10995 10994 10993 10990 10987 10986 10982 10977 10973 10970 10968 10964 10961 10957 10956 10955 10954 10952 10951 10951 10951 10952 10952 10953 10953 10953 10953 10953 10953 10953 10954 10955 10955 10955 10956 10956 10955 10954 10954 10954 10952 10950 10949
10999 10995 10994 10992 10991 10989 10986 10983 10980 10976 10973 10971 10969 10966 10963 10959 10955 10952 10951 10951 10950 10951 10953 10953 10954 10954 10954 10955 10955 10955 10955 10955 10956 10957 10958 10958 10957 10957 10956 10955 10953 10951 10949
10999 10998 10997 10996 10995 10994 10992 10989 10986 10983 10982 10980 10975 10973 10969 10964 10958 10953 10951 10950 10951 10951 10951 10952 10954 10954 10954 10954 10955 10956 10955 10956 10958 10959 10959 10958 10958 10958 10957 10955 10954 10952 10949
11000 11001 11000 11001 10999 10999 10996 10993 10992 10991 10987 10984 10981 10979 10975 10969 10963 10959 10956 10954 10953 10951 10951 10951 10952 10953 10954 10955 10955 10956 10957 10957 10958 10958 10958 10958 10958 10958 10957 10956 10954 10951 10947
11003 11003 11003 11003 11002 11001 10999 10997 10996 10995 10992 10990 10986 10985 10981 10976 10972 10968 10963 10959 10957 10955 10952 10952 10951 10951 10952 10954 10955 10955 10956 10957 10957 10957 10957 10957 10957 10957 10956 10955 10953 10950 10947
11005 11005 11006 11004 11004 11004 11002 11001 11000 10998 10997 10994 10991 10989 10986 10982 10978 10975 10969 10965 10964 10961 10959 10958 10956 10954 10954 10954 10954 10954 10955 10956 10956 10956 10956 10956 10956 10956 10956 10955 10953 10950 10947
11005 11006 11006 11005 11005 11006 11005 11004 11003 11001 10999 10997 10995 10992 10991 10988 10985 10981 10976 10972 10970 10969 10968 10965 10963 10961 10960 10960 10959 10958 10957 10956 10956 10956 10957 10957 10956 10956 10956 10954 10952 10950 10945
11005 11006 11005 11005 11005 11006 11006 11006 11005 11003 11001 11000 10999 10996 10994 10992 10991 10988 10983 10981 10978 10977 10974 10972 10970 10967 10966 10965 10965 10964 10963 10961 10961 10961 10961 10960 10959 10958 10956 10955 10952 10949 10946
11005 11005 11004 11005 11005 11006 11006 11006 11004 11003 11003 11002 11001 10999 10998 10996 10993 10991 10988 10987 10985 10983 10980 10978 10975 10973 10971 10970 10968 10968 10966 10965 10965 10966 10964 10964 10963 10960 10959 10957 10953 10949 10944
11004 11005 11004 11005 11005 11006 11006 11005 11004 11004 11005 11005 11004 11002 11000 10999 10998 10996 10993 10992 10989 10987 10985 10983 10982 10980 10977 10975 10973 10973 10972 10971 10969 10968 10967 10965 10963 10961 10959 10956 10953 10948 10942
11003 11004 11003 11005 11005 11005 11006 11005 11005 11005 11005 11005 11005 11004 11003 11002 11000 10999 10996 10994 10992 10991 10989 10988 10986 10983 10981 10980 10979 10978 10975 10973 10972 10971 10969 10967 10965 10963 10960 10957 10952 10947 10941
11003 11003 11003 11003 11005 11005 11005 11005 11005 11004 11004 11004 11005 11005 11004 11003 11001 11000 10998 10997 10995 10993 10992 10990 10989 10988 10987 10984 10982 10981 10979 10976 10975 10974 10971 10970 10967 10964 10961 10957 10952 10946 10938
11001 11001 11001 11002 11003 11003 11004 11004 11004 11003 11002 11002 11003 11003 11003 11002 11002 11002 11000 10999 10997 10996 10994 10993 10992 10990 10989 10987 10985 10983 10982 10980 10978 10976 10972 10971 10967 10964 10960 10955 10950 10943 10937
10997 10998 10999 10999 11000 11001 11002 11002 11002 11001 11000 11000 11000 11001 11001 11001 11001 11001 11001 11000 10998 10997 10996 10995 10993 10992 10990 10989 10987 10985 10982 10981 10979 10975 10973 10970 10966 10961 10956 10951 10946 10942 10938
10992 10993 10995 10996 10997 10998 10998 10999 10999 10999 10999 10998 10999 10999 10999 10999 10999 10999 10999 10998 10997 10996 10996 10995 10993 10992 10990 10988 10986 10984 10982 10979 10978 10975 10971 10968 10964 10959 10955 10950 10946 10942 10937
10987 10988 10989 10990 10992 10993 10994 10995 10995 10995 10996 10996 10996 10997 10998 10998 10996 10996 10996 10995 10995 10993 10993 10993 10992 10991 10989 10987 10984 10982 10980 10978 10974 10974 10971 10966 10963 10959 10954 10949 10945 10940 10935
10986 10986 10985 10987 10989 10989 10989 10990 10992 10992 10992 10993 10994 10994 10994 10994 10995 10994 10993 10992 10991 10991 10990 10990 10989 10987 10986 10984 10983 10981 10978 10976 10974 10970 10969 10965 10961 10956 10951 10946 10941 10938 10933
10981 10983 10983 10982 10983 10985 10985 10985 10987 10989 10989 10990 10991 10991 10991 10991 10991 10990 10990 10989 10988 10987 10986 10985 10984 10983 10982 10980 10978 10977 10974 10972 10970 10966 10964 10962 10958 10953 10948 10943 10939 10934 10930
10974 10978 10979 10980 10980 10979 10979 10980 10980 10981 10983 10985 10985 10986 10987 10986 10986 10986 10985 10985 10984 10983 10982 10981 10979 10978 10977 10975 10973 10971 10969 10967 10965 10962 10957 10955 10953 10949 10944 10940 10935 10930 10926
10964 10969 10973 10975 10977 10977 10977 10976 10977 10976 10977 10978 10980 10981 10983 10982 10981 10980 10980 10980 10979 10979 10977 10976 10975 10973 10971 10969 10967 10964 10964 10961 10958 10957 10952 10948 10947 10944 10941 10937 10932 10927 10922
10956 10961 10965 10967 10969 10971 10971 10970 10971 10972 10972 10974 10975 10976 10977 10977 10976 10975 10975 10975 10974 10975 10972 10971 10970 10968 10966 10963 10961 10958 10957 10954 10952 10949 10948 10945 10942 10939 10936 10934 10929 10923 10918